DELTA 1 DEB

基本信息
目录编号:
5975
目录名称:
DELTA 1 DEB
国际标识:
1970-021C
轨道中心:
EARTH
物体状态:
在轨
发射日期:
1970-03-20 UTC
轨道信息
数据来源: 国际轨道数据
星历时间: 2026-07-13T21:10:37+0800
半长轴: 19160.627km
偏心率: 0.6516967
轨道倾角: 25.451°
近地点辐角: 39.192°
升交点赤经: 218.205°
平近点角: 353.413°
近地点: 295.572km
远地点: 25269.408km
周期: 439.921分钟
每日圈数: 3.273318
详细信息
发射场:
AFETR
轨道高度:
LEO
数据来源:
AOE Integration Group
参考系:
TEME
时间系统:
UTC
历元类型:
SGP4
2D轨道图
3D轨道图
轨道高度分析图
轨道倾角分析图
轨道综合分析图
查看轨道综合分析图